7QMTA FWKI-FWLK

Flight info

Callsign 7QMTA
Flight time 0h 45m
Altitude 9500
Route DVL
Aircraft C182/L-SDGRY/C

Departure

Time 2026-04-15 08:54
Airport Kamuzu International Airport (FWKI)

Arrival

Time 2026-04-15 09:39
Airport Likoma Island Airport (FWLK)
Time Latitude Longitude Altitude Speed Heading
2026-04-15 08:41 -13.78781 33.78412 4022 ft 0 kts 127°
2026-04-15 08:45 -13.78781 33.78413 4025 ft 0 kts 126°
2026-04-15 08:46 -13.78782 33.78415 4025 ft 0 kts 109°
2026-04-15 08:46 -13.78785 33.78410 4025 ft 0 kts 301°
2026-04-15 08:47 -13.78785 33.78427 4025 ft 0 kts 310°
2026-04-15 08:50 -13.78763 33.78402 4026 ft 17 kts 319°
2026-04-15 08:51 -13.78796 33.78282 4025 ft 27 kts 236°
2026-04-15 08:51 -13.78699 33.78097 4026 ft 39 kts 310°
2026-04-15 08:51 -13.78494 33.77844 4026 ft 53 kts 308°
2026-04-15 08:51 -13.78235 33.77526 4025 ft 59 kts 310°
2026-04-15 08:52 -13.77996 33.77236 4025 ft 47 kts 309°
2026-04-15 08:52 -13.77827 33.77022 4026 ft 26 kts 299°
2026-04-15 08:52 -13.77850 33.76909 4026 ft 14 kts 217°
2026-04-15 08:52 -13.77938 33.76882 4027 ft 16 kts 161°
2026-04-15 08:53 -13.78032 33.76990 4025 ft 32 kts 126°
2026-04-15 08:53 -13.78276 33.77294 4024 ft 77 kts 128°
2026-04-15 08:53 -13.78654 33.77781 4052 ft 93 kts 127°
2026-04-15 08:53 -13.78666 33.77794 4053 ft 93 kts 127°
2026-04-15 08:54 -13.79077 33.78250 4217 ft 100 kts 128°
2026-04-15 08:54 -13.79547 33.78777 4547 ft 105 kts 127°
2026-04-15 08:54 -13.80013 33.79317 4950 ft 97 kts 124°
2026-04-15 08:54 -13.80424 33.79848 5268 ft 95 kts 123°
2026-04-15 08:55 -13.80796 33.80401 5530 ft 94 kts 105°
2026-04-15 08:55 -13.80712 33.81054 5750 ft 94 kts 56°
2026-04-15 08:55 -13.80079 33.81390 5827 ft 111 kts 31°
2026-04-15 08:55 -13.79335 33.81714 5977 ft 121 kts 31°
2026-04-15 08:56 -13.78555 33.82098 6162 ft 127 kts 32°
2026-04-15 08:56 -13.77764 33.82518 6342 ft 129 kts 34°
2026-04-15 08:56 -13.76971 33.82947 6524 ft 127 kts 34°
2026-04-15 08:56 -13.76203 33.83363 6771 ft 124 kts 34°
2026-04-15 08:57 -13.75469 33.83767 6997 ft 118 kts 34°
2026-04-15 08:57 -13.74742 33.84166 7239 ft 115 kts 34°
2026-04-15 08:57 -13.74045 33.84552 7475 ft 113 kts 34°
2026-04-15 08:57 -13.73364 33.84929 7717 ft 112 kts 34°
2026-04-15 08:58 -13.72717 33.85358 7966 ft 111 kts 39°
2026-04-15 08:58 -13.71340 33.86163 8353 ft 116 kts 27°
2026-04-15 08:58 -13.70607 33.86504 8549 ft 117 kts 31°
2026-04-15 08:59 -13.69870 33.86880 8759 ft 119 kts 31°
2026-04-15 08:59 -13.69132 33.87267 8958 ft 121 kts 32°
2026-04-15 08:59 -13.68362 33.87679 9135 ft 127 kts 32°
2026-04-15 08:59 -13.67564 33.88108 9333 ft 131 kts 32°
2026-04-15 09:00 -13.66745 33.88550 9507 ft 136 kts 32°
2026-04-15 09:00 -13.65875 33.89020 9518 ft 144 kts 31°
2026-04-15 09:00 -13.64974 33.89506 9516 ft 148 kts 31°
2026-04-15 09:00 -13.64056 33.90001 9515 ft 150 kts 31°
2026-04-15 09:01 -13.63121 33.90505 9524 ft 154 kts 31°
2026-04-15 09:01 -13.62158 33.91026 9522 ft 159 kts 31°
2026-04-15 09:01 -13.61169 33.91559 9523 ft 161 kts 31°
2026-04-15 09:01 -13.60184 33.92090 9521 ft 162 kts 31°
2026-04-15 09:02 -13.57974 33.93282 9521 ft 163 kts 31°
2026-04-15 09:02 -13.57361 33.93613 9516 ft 164 kts 31°
2026-04-15 09:02 -13.56352 33.94157 9518 ft 164 kts 31°
2026-04-15 09:03 -13.55339 33.94703 9515 ft 165 kts 31°
2026-04-15 09:03 -13.54322 33.95252 9518 ft 166 kts 31°
2026-04-15 09:03 -13.53299 33.95803 9520 ft 166 kts 31°
2026-04-15 09:03 -13.52270 33.96359 9521 ft 168 kts 31°
2026-04-15 09:04 -13.51235 33.96916 9519 ft 168 kts 31°
2026-04-15 09:04 -13.50199 33.97474 9520 ft 168 kts 31°
2026-04-15 09:04 -13.49160 33.98034 9519 ft 168 kts 31°
2026-04-15 09:04 -13.48530 33.98374 9517 ft 168 kts 31°
2026-04-15 09:05 -13.47651 33.98848 9521 ft 169 kts 31°
2026-04-15 09:05 -13.46616 33.99406 9518 ft 168 kts 31°
2026-04-15 09:05 -13.45575 33.99967 9515 ft 169 kts 31°
2026-04-15 09:05 -13.44532 34.00528 9522 ft 170 kts 31°
2026-04-15 09:06 -13.43820 34.00912 9515 ft 171 kts 31°
2026-04-15 09:06 -13.42781 34.01472 9519 ft 171 kts 31°
2026-04-15 09:06 -13.41729 34.02038 9510 ft 170 kts 31°
2026-04-15 09:06 -13.40341 34.02785 9520 ft 169 kts 31°
2026-04-15 09:07 -13.39651 34.03157 9520 ft 170 kts 31°
2026-04-15 09:07 -13.38597 34.03725 9519 ft 171 kts 31°
2026-04-15 09:07 -13.37544 34.04290 9514 ft 172 kts 31°
2026-04-15 09:07 -13.36481 34.04864 9520 ft 173 kts 31°
2026-04-15 09:08 -13.35754 34.05254 9514 ft 172 kts 31°
2026-04-15 09:08 -13.34701 34.05820 9512 ft 171 kts 31°
2026-04-15 09:08 -13.33648 34.06389 9512 ft 171 kts 31°
2026-04-15 09:08 -13.32600 34.06953 9505 ft 169 kts 31°
2026-04-15 09:09 -13.31563 34.07510 9505 ft 167 kts 31°
2026-04-15 09:09 -13.30530 34.08066 9508 ft 168 kts 31°
2026-04-15 09:09 -13.29494 34.08623 9501 ft 167 kts 31°
2026-04-15 09:09 -13.28461 34.09179 9503 ft 167 kts 31°
2026-04-15 09:10 -13.27428 34.09735 9506 ft 168 kts 31°
2026-04-15 09:10 -13.26386 34.10295 9504 ft 169 kts 31°
2026-04-15 09:10 -13.25348 34.10853 9507 ft 169 kts 31°
2026-04-15 09:10 -13.24315 34.11409 9507 ft 170 kts 31°
2026-04-15 09:11 -13.23269 34.11971 9509 ft 170 kts 31°
2026-04-15 09:11 -13.22224 34.12533 9511 ft 169 kts 31°
2026-04-15 09:11 -13.21179 34.13094 9504 ft 168 kts 30°
2026-04-15 09:11 -13.20139 34.13653 9504 ft 170 kts 31°
2026-04-15 09:12 -13.19091 34.14217 9505 ft 170 kts 31°
2026-04-15 09:12 -13.18034 34.14785 9506 ft 171 kts 30°
2026-04-15 09:12 -13.16980 34.15351 9506 ft 171 kts 31°
2026-04-15 09:12 -13.15922 34.15919 9508 ft 171 kts 30°
2026-04-15 09:13 -13.14880 34.16479 9504 ft 171 kts 30°
2026-04-15 09:13 -13.13822 34.17047 9509 ft 172 kts 30°
2026-04-15 09:13 -13.12762 34.17617 9509 ft 173 kts 30°
2026-04-15 09:13 -13.11691 34.18192 9505 ft 173 kts 30°
2026-04-15 09:14 -13.10622 34.18766 9509 ft 173 kts 30°
2026-04-15 09:14 -13.09553 34.19340 9511 ft 174 kts 30°
2026-04-15 09:14 -13.08475 34.19919 9516 ft 175 kts 30°
2026-04-15 09:14 -13.07392 34.20500 9509 ft 175 kts 29°
2026-04-15 09:15 -13.06323 34.21073 9517 ft 175 kts 30°
2026-04-15 09:15 -13.05241 34.21655 9517 ft 175 kts 30°
2026-04-15 09:15 -13.04157 34.22236 9512 ft 175 kts 30°
2026-04-15 09:15 -13.03082 34.22814 9512 ft 175 kts 30°
2026-04-15 09:16 -13.02006 34.23391 9514 ft 174 kts 30°
2026-04-15 09:16 -13.00931 34.23968 9512 ft 174 kts 30°
2026-04-15 09:16 -12.99854 34.24546 9510 ft 175 kts 30°
2026-04-15 09:16 -12.98779 34.25122 9514 ft 174 kts 30°
2026-04-15 09:17 -12.97711 34.25695 9512 ft 174 kts 30°
2026-04-15 09:17 -12.96993 34.26080 9514 ft 174 kts 30°
2026-04-15 09:17 -12.96716 34.26229 9509 ft 174 kts 30°
2026-04-15 09:17 -12.95642 34.26805 9515 ft 174 kts 30°
2026-04-15 09:18 -12.94565 34.27382 9510 ft 175 kts 30°
2026-04-15 09:18 -12.93488 34.27960 9513 ft 175 kts 30°
2026-04-15 09:18 -12.92414 34.28535 9514 ft 174 kts 30°
2026-04-15 09:18 -12.91340 34.29111 9517 ft 175 kts 29°
2026-04-15 09:19 -12.90254 34.29693 9515 ft 176 kts 28°
2026-04-15 09:19 -12.89170 34.30274 9516 ft 176 kts 28°
2026-04-15 09:19 -12.88080 34.30859 9501 ft 177 kts 28°
2026-04-15 09:19 -12.86988 34.31444 9453 ft 178 kts 28°
2026-04-15 09:20 -12.85898 34.32027 9405 ft 179 kts 28°
2026-04-15 09:20 -12.84778 34.32628 9305 ft 182 kts 28°
2026-04-15 09:20 -12.83662 34.33226 9185 ft 183 kts 28°
2026-04-15 09:20 -12.82527 34.33833 9063 ft 184 kts 28°
2026-04-15 09:21 -12.81393 34.34440 8940 ft 184 kts 28°
2026-04-15 09:21 -12.80260 34.35047 8812 ft 184 kts 28°
2026-04-15 09:21 -12.79123 34.35656 8695 ft 184 kts 28°
2026-04-15 09:21 -12.77994 34.36261 8568 ft 183 kts 28°
2026-04-15 09:22 -12.76865 34.36865 8443 ft 183 kts 28°
2026-04-15 09:22 -12.75733 34.37471 8317 ft 183 kts 28°
2026-04-15 09:22 -12.74605 34.38075 8192 ft 183 kts 28°
2026-04-15 09:22 -12.73475 34.38680 8068 ft 183 kts 28°
2026-04-15 09:23 -12.72349 34.39282 7943 ft 182 kts 28°
2026-04-15 09:23 -12.71226 34.39883 7818 ft 182 kts 28°
2026-04-15 09:23 -12.70104 34.40483 7700 ft 182 kts 28°
2026-04-15 09:23 -12.68978 34.41086 7568 ft 182 kts 28°
2026-04-15 09:24 -12.67861 34.41683 7444 ft 181 kts 28°
2026-04-15 09:24 -12.66743 34.42281 7318 ft 181 kts 28°
2026-04-15 09:24 -12.65641 34.42871 7194 ft 181 kts 28°
2026-04-15 09:24 -12.64527 34.43466 7069 ft 180 kts 28°
2026-04-15 09:25 -12.63422 34.44057 6943 ft 179 kts 28°
2026-04-15 09:25 -12.62319 34.44647 6817 ft 178 kts 28°
2026-04-15 09:25 -12.61224 34.45232 6691 ft 178 kts 27°
2026-04-15 09:25 -12.60122 34.45821 6565 ft 178 kts 27°
2026-04-15 09:26 -12.59024 34.46408 6440 ft 178 kts 27°
2026-04-15 09:26 -12.57920 34.46998 6314 ft 178 kts 27°
2026-04-15 09:26 -12.56825 34.47583 6189 ft 177 kts 27°
2026-04-15 09:26 -12.55729 34.48169 6064 ft 177 kts 27°
2026-04-15 09:27 -12.54638 34.48752 5939 ft 177 kts 27°
2026-04-15 09:27 -12.53562 34.49327 5815 ft 177 kts 27°
2026-04-15 09:27 -12.52460 34.49916 5683 ft 176 kts 27°
2026-04-15 09:27 -12.51384 34.50490 5565 ft 176 kts 27°
2026-04-15 09:28 -12.50302 34.51068 5441 ft 176 kts 27°
2026-04-15 09:28 -12.49213 34.51650 5313 ft 176 kts 27°
2026-04-15 09:28 -12.48135 34.52225 5230 ft 174 kts 27°
2026-04-15 09:28 -12.47070 34.52794 5153 ft 172 kts 27°
2026-04-15 09:29 -12.46007 34.53362 5076 ft 171 kts 27°
2026-04-15 09:29 -12.44946 34.53928 4999 ft 171 kts 27°
2026-04-15 09:29 -12.43898 34.54488 4924 ft 170 kts 27°
2026-04-15 09:29 -12.42861 34.55041 4849 ft 170 kts 27°
2026-04-15 09:30 -12.41807 34.55604 4773 ft 170 kts 27°
2026-04-15 09:30 -12.40758 34.56163 4696 ft 170 kts 27°
2026-04-15 09:30 -12.39713 34.56721 4623 ft 169 kts 27°
2026-04-15 09:30 -12.38665 34.57280 4552 ft 169 kts 27°
2026-04-15 09:31 -12.37621 34.57837 4472 ft 169 kts 27°
2026-04-15 09:31 -12.36574 34.58396 4397 ft 169 kts 27°
2026-04-15 09:31 -12.35530 34.58952 4322 ft 169 kts 27°
2026-04-15 09:31 -12.34482 34.59512 4249 ft 170 kts 27°
2026-04-15 09:32 -12.33442 34.60066 4176 ft 171 kts 27°
2026-04-15 09:32 -12.32392 34.60626 4102 ft 171 kts 27°
2026-04-15 09:32 -12.31334 34.61190 4027 ft 171 kts 27°
2026-04-15 09:32 -12.30280 34.61752 3953 ft 171 kts 27°
2026-04-15 09:33 -12.29226 34.62314 3878 ft 170 kts 27°
2026-04-15 09:33 -12.28174 34.62875 3803 ft 170 kts 27°
2026-04-15 09:33 -12.27124 34.63435 3728 ft 170 kts 27°
2026-04-15 09:33 -12.26075 34.63994 3653 ft 170 kts 27°
2026-04-15 09:34 -12.25039 34.64546 3579 ft 170 kts 27°
2026-04-15 09:34 -12.23992 34.65104 3517 ft 169 kts 27°
2026-04-15 09:34 -12.22957 34.65655 3513 ft 166 kts 27°
2026-04-15 09:34 -12.21938 34.66198 3506 ft 165 kts 27°
2026-04-15 09:35 -12.20925 34.66738 3504 ft 164 kts 27°
2026-04-15 09:35 -12.19916 34.67275 3505 ft 164 kts 27°
2026-04-15 09:35 -12.18908 34.67816 3501 ft 163 kts 28°
2026-04-15 09:35 -12.17910 34.68387 3445 ft 166 kts 31°
2026-04-15 09:36 -12.16948 34.69049 3371 ft 167 kts 35°
2026-04-15 09:36 -12.15991 34.69740 3300 ft 170 kts 35°
2026-04-15 09:36 -12.15087 34.70470 3216 ft 156 kts 41°
2026-04-15 09:36 -12.14307 34.71172 3117 ft 144 kts 41°
2026-04-15 09:37 -12.13569 34.71835 3020 ft 138 kts 41°
2026-04-15 09:37 -12.12856 34.72477 2926 ft 135 kts 41°
2026-04-15 09:37 -12.12162 34.73102 2837 ft 132 kts 41°
2026-04-15 09:37 -12.11487 34.73710 2752 ft 129 kts 41°
2026-04-15 09:38 -12.10736 34.73704 2608 ft 111 kts 332°
2026-04-15 09:38 -12.10089 34.73478 2239 ft 87 kts 353°
2026-04-15 09:38 -12.09523 34.73481 1949 ft 75 kts
2026-04-15 09:38 -12.08981 34.73524 1770 ft 77 kts
2026-04-15 09:39 -12.08451 34.73577 1602 ft 74 kts 13°
2026-04-15 09:39 -12.08026 34.73625 1595 ft 52 kts
2026-04-15 09:39 -12.07733 34.73664 1595 ft 35 kts
2026-04-15 09:39 -12.07575 34.73687 1595 ft 17 kts 23°
2026-04-15 09:40 -12.07546 34.73735 1595 ft 3 kts 301°
2026-04-15 09:40 -12.07545 34.73732 1595 ft 0 kts 277°